Home > Weather > Kathmandu > Past weeks

Flag for Nepal Past Weather in Kathmandu, Nepal — Yesterday and Last 2 Weeks

Now
73 °F

Rain. Broken clouds.


Feels Like: 75 °F
Forecast: 65 / 88 °F
Wind: 10 mph from Southwest

Location: Kathmandu Airport

Current Time: Aug 26, 2016 at 12:54:16 PM

Latest Report: Aug 26, 2016 at 12:05 PM


Visibility: 4 mi

Pressure: 30.07 "Hg (25.87 "Hg at 1305m altitude)

Humidity: 74%

Dew Point: 64 °F

Location of KathmanduLocation

Past Weather in Kathmandu — Graph

°F

Kathmandu Temperature Yesterday

Maximum temperature yesterday: 88 °F (at 1:05 PM)
Minimum temperature yesterday: 68 °F (at 3:35 AM)
Average temperature yesterday: 79 °F

High & Low Weather Summary for the Past Weeks

 TemperatureHumidityPressure
High88 °F (Aug 25, 1:05 PM)100% (Aug 12, 7:05 PM)30.07 "Hg (Aug 12, 7:05 PM)
Low68 °F (Aug 17, 4:35 AM)52% (Aug 25, 1:35 PM)29.62 "Hg (Aug 16, 3:05 PM)
Average76 °F82%29.85 "Hg
* Reported Aug 11 11:05 AM — Aug 26 11:35 AM, Kathmandu, Weather by CustomWeather, © 2016

Note: Actual official high and low records may vary slightly from our data, if they occured in-between our weather recording intervals... More about our weather records

Advertising

Kathmandu Weather History for the Previous 24 Hours

Scroll right to see more
 ConditionsComfort  
Time TempWeatherWind HumidityBarometerVisibility
11:35 AM
Fri, Aug 26
77 °FRain. Broken clouds.13 mph69%30.07 "Hg4 mi
11:05 AM77 °FBroken clouds.7 mph79%30.07 "Hg5 mi
10:35 AM77 °FBroken clouds.5 mph79%30.07 "Hg5 mi
10:05 AM79 °FPartly sunny.No wind74%30.07 "Hg5 mi
9:35 AM75 °FPartly sunny.5 mph78%30.07 "Hg5 mi
8:35 AM72 °FPartly sunny.5 mph88%30.07 "Hg5 mi
8:05 AM70 °FFog.N/A88%30.04 "HgN/A
7:35 AM70 °FBroken clouds.3 mph88%30.04 "Hg5 mi
7:05 AM68 °FBroken clouds.3 mph94%30.04 "Hg4 mi
6:35 AM68 °FBroken clouds.5 mph94%30.04 "Hg5 mi
6:05 AM68 °FRain. Partly cloudy.3 mph94%30.04 "Hg5 mi
5:35 AM68 °FLight rain. Passing clouds.3 mph94%30.04 "Hg4 mi
4:35 AM68 °FLight rain. Partly cloudy.3 mph94%30.01 "Hg4 mi
3:35 AM68 °FLight rain. Partly cloudy.3 mph94%30.01 "Hg4 mi
2:35 AM68 °FThunderstorms. Passing clouds.9 mph100%30.01 "Hg4 mi
1:35 AM73 °FThunderstorms. Passing clouds.6 mph83%29.95 "Hg4 mi
12:35 AM75 °FThunderstorms. Passing clouds.No wind89%29.98 "Hg4 mi
12:05 AM75 °FThunderstorms. Partly cloudy.5 mph89%29.98 "Hg4 mi
11:35 PM
Thu, Aug 25
75 °FThunderstorms. Passing clouds.2 mph89%29.98 "Hg4 mi
11:05 PM75 °FThunderstorms. Passing clouds.3 mph89%29.98 "Hg4 mi
10:35 PM75 °FThunderstorms. Passing clouds.5 mph94%29.98 "Hg4 mi
10:05 PM75 °FThunderstorms. Passing clouds.5 mph94%29.98 "Hg4 mi
9:35 PM77 °FPassing clouds.3 mph89%29.98 "Hg4 mi
9:05 PM77 °FPassing clouds.6 mph83%29.98 "Hg4 mi
8:35 PM79 °FPassing clouds.3 mph74%29.98 "Hg4 mi
8:05 PM77 °FPassing clouds.5 mph83%29.95 "Hg4 mi
7:35 PM79 °FPassing clouds.6 mph74%29.92 "Hg4 mi
7:05 PM81 °FScattered clouds.7 mph70%29.92 "Hg5 mi
6:35 PM81 °FPassing clouds.7 mph70%29.89 "Hg5 mi
6:05 PM81 °FScattered clouds.7 mph74%29.89 "Hg5 mi
5:35 PM82 °FBroken clouds.3 mph66%29.89 "Hg5 mi
5:05 PM84 °FScattered clouds.6 mph58%29.86 "Hg5 mi
4:35 PM84 °FScattered clouds.6 mph66%29.89 "Hg5 mi
4:05 PM86 °FRain. Scattered clouds.6 mph62%29.89 "Hg5 mi
3:35 PM86 °FScattered clouds.9 mph62%29.89 "Hg5 mi
3:05 PM88 °FScattered clouds.7 mph59%29.89 "Hg5 mi
2:35 PM86 °FScattered clouds.7 mph62%29.89 "Hg5 mi
2:05 PM84 °FScattered clouds.7 mph62%29.92 "HgN/A
1:35 PM88 °FPassing clouds.6 mph52%29.92 "HgN/A
1:05 PM88 °FPassing clouds.8 mph55%29.95 "HgN/A
12:35 PM86 °FPassing clouds.6 mph59%29.95 "HgN/A
12:05 PM86 °FPassing clouds.5 mph55%29.95 "HgN/A
Weather by CustomWeather, © 2016

See weather overviewHow to use our weather pages